DW4248 Weather Reports


Display with metric or nautical units.
time (UTC)temp
F
wind
direction
speed
MPH
gust
MPH
rain 1hr
in
rain 24hr
in
rain mn
in
humidity
%
barometer
mb
20260903230903 97 133 0.0 1.0 0.00 0.00 0.00 45 1012.2
20260903230004 97 139 0.0 3.0 0.00 0.00 0.00 45 1012.3
20260903225403 97 145 0.0 1.0 0.00 0.00 0.00 45 1012.3
20260903224503 98 136 1.0 3.0 0.00 0.00 0.00 44 1012.2
20260903223603 98 133 1.0 3.0 0.00 0.00 0.00 43 1012.3
20260903222703 98 135 1.0 3.0 0.00 0.00 0.00 43 1012.3
20260903221803 98 141 1.0 8.0 0.00 0.00 0.00 43 1012.3
20260903220903 99 140 2.0 10.0 0.00 0.00 0.00 42 1012.2
20260903220003 100 138 1.0 7.0 0.00 0.00 0.00 41 1012.2
20260903215403 100 138 0.0 6.0 0.00 0.00 0.00 40 1012.3
20260903214503 100 145 1.0 3.0 0.00 0.00 0.00 40 1012.3
20260903213624 100 141 0.0 3.0 0.00 0.00 0.00 41 1012.4
20260903212724 100 122 0.0 3.0 0.00 0.00 0.00 42 1012.4
20260903211824 100 146 0.0 6.0 0.00 0.00 0.00 41 1012.5
20260903210924 100 123 0.0 5.0 0.00 0.00 0.00 42 1012.6
20260903210024 100 129 1.0 9.0 0.00 0.00 0.00 44 1012.7
20260903205424 100 137 1.0 4.0 0.00 0.00 0.00 40 1012.8
20260903204524 100 155 1.0 7.0 0.00 0.00 0.00 40 1012.8
20260903203624 99 297 1.0 3.0 0.00 0.00 0.00 42 1012.9
20260903202725 99 330 2.0 8.0 0.00 0.00 0.00 41 1012.9
20260903201825 99 315 2.0 8.0 0.00 0.00 0.00 41 1012.9
20260903200903 99 148 2.0 7.0 0.00 0.00 0.00 40 1013.1
20260903200003 98 139 2.0 6.0 0.00 0.00 0.00 42 1013.3
20260903195403 98 343 2.0 6.0 0.00 0.00 0.00 42 1013.3
20260903194503 97 336 2.0 8.0 0.00 0.00 0.00 45 1013.4
20260903193603 99 162 1.0 3.0 0.00 0.00 0.00 45 1013.5
20260903192703 98 288 2.0 6.0 0.00 0.00 0.00 43 1013.8
20260903191803 98 151 1.0 6.0 0.00 0.00 0.00 45 1013.9
20260903190903 97 340 2.0 8.0 0.00 0.00 0.00 47 1014.0
20260903190003 97 338 2.0 7.0 0.00 0.00 0.00 45 1014.0
20260903185403 98 338 2.0 7.0 0.00 0.00 0.00 46 1014.1
20260903184503 98 181 1.0 6.0 0.00 0.00 0.00 47 1014.3
20260903183603 98 167 1.0 4.0 0.00 0.00 0.00 47 1014.3
20260903182705 97 309 1.0 3.0 0.00 0.00 0.00 49 1014.3
20260903181804 96 324 2.0 8.0 0.00 0.00 0.00 46 1014.5
20260903180905 96 209 2.0 9.0 0.00 0.00 0.00 45 1014.6
20260903180024 96 298 2.0 6.0 0.00 0.00 0.00 49 1014.7
20260903175424 96 297 2.0 6.0 0.00 0.00 0.00 49 1014.8
20260903174524 95 325 2.0 9.0 0.00 0.00 0.00 50 1014.9
20260903173624 95 160 3.0 7.0 0.00 0.00 0.00 50 1015.0
20260903172724 94 326 2.0 8.0 0.00 0.00 0.00 53 1015.0
20260903171803 94 342 2.0 8.0 0.00 0.00 0.00 53 1015.1
20260903170903 93 333 2.0 9.0 0.00 0.00 0.00 55 1015.1
20260903170003 93 338 2.0 9.0 0.00 0.00 0.00 55 1015.2
20260903165403 93 331 2.0 6.0 0.00 0.00 0.00 54 1015.2
20260903164503 93 338 3.0 11.0 0.00 0.00 0.00 54 1015.3
20260903163603 93 336 2.0 7.0 0.00 0.00 0.00 53 1015.4
20260903162703 93 245 1.0 7.0 0.00 0.00 0.00 54 1015.4
20260903161803 93 342 1.0 5.0 0.00 0.00 0.00 57 1015.4
20260903160904 92 318 1.0 4.0 0.00 0.00 0.00 56 1015.5
20260903160003 92 122 1.0 6.0 0.00 0.00 0.00 58 1015.5
20260903155403 92 142 2.0 6.0 0.00 0.00 0.00 59 1015.5
20260903154503 91 156 2.0 6.0 0.00 0.00 0.00 58 1015.5
20260903153603 91 345 1.0 4.0 0.00 0.00 0.00 60 1015.5
20260903152703 90 214 1.0 5.0 0.00 0.00 0.00 61 1015.5
20260903151803 90 155 2.0 6.0 0.00 0.00 0.00 62 1015.5
20260903150903 90 188 2.0 7.0 0.00 0.00 0.00 62 1015.5
20260903150003 89 255 1.0 7.0 0.00 0.00 0.00 63 1015.6
20260903145403 89 322 1.0 4.0 0.00 0.00 0.00 64 1015.5
20260903144503 88 211 1.0 4.0 0.00 0.00 0.00 64 1015.5
20260903143603 88 155 1.0 5.0 0.00 0.00 0.00 65 1015.5
20260903142703 87 147 1.0 4.0 0.00 0.00 0.00 66 1015.5
20260903141803 86 143 1.0 3.0 0.00 0.00 0.00 68 1015.5
20260903140903 86 138 1.0 4.0 0.00 0.00 0.00 68 1015.6
20260903140003 85 127 0.0 3.0 0.00 0.00 0.00 70 1015.5
20260903135403 85 138 0.0 3.0 0.00 0.00 0.00 71 1015.5
20260903134503 84 130 0.0 2.0 0.00 0.00 0.00 72 1015.5
20260903133603 83 134 0.0 2.0 0.00 0.00 0.00 72 1015.6
20260903132703 83 120 0.0 1.0 0.00 0.00 0.00 74 1015.6
20260903131803 82 137 0.0 3.0 0.00 0.00 0.00 74 1015.5
20260903130903 82 131 0.0 1.0 0.00 0.00 0.00 75 1015.5
20260903130003 81 134 0.0 1.0 0.00 0.00 0.00 76 1015.5
20260903125403 81 0 0.0 1.0 0.00 0.00 0.00 76 1015.6
20260903124503 80 0 0.0 1.0 0.00 0.00 0.00 76 1015.5
20260903123603 80 0 0.0 1.0 0.00 0.00 0.00 77 1015.5
20260903122703 80 0 0.0 0.0 0.00 0.00 0.00 77 1015.5
20260903121803 80 0 0.0 0.0 0.00 0.00 0.00 78 1015.4
20260903120903 80 0 0.0 0.0 0.00 0.00 0.00 76 1015.4
20260903120003 80 0 0.0 0.0 0.00 0.00 0.00 76 1015.3
20260903115403 80 0 0.0 0.0 0.00 0.00 0.00 75 1015.2
20260903114503 80 137 0.0 1.0 0.00 0.00 0.00 75 1015.1
20260903113603 80 136 0.0 1.0 0.00 0.00 0.00 74 1015.1
20260903112703 80 132 0.0 1.0 0.00 0.00 0.00 74 1015.1
20260903111803 81 0 0.0 0.0 0.00 0.00 0.00 74 1015.0
20260903110903 81 136 0.0 1.0 0.00 0.00 0.00 73 1015.0
20260903110003 81 136 0.0 1.0 0.00 0.00 0.00 73 1014.9
20260903105424 81 132 0.0 1.0 0.00 0.00 0.00 73 1014.9
20260903104524 81 135 0.0 1.0 0.00 0.00 0.00 73 1014.8
20260903103624 81 134 0.0 1.0 0.00 0.00 0.00 73 1014.8
20260903102724 81 134 0.0 1.0 0.00 0.00 0.00 73 1014.7
20260903101824 82 131 0.0 1.0 0.00 0.00 0.00 73 1014.7
20260903100903 81 131 0.0 1.0 0.00 0.00 0.00 73 1014.8
20260903100003 82 123 0.0 1.0 0.00 0.00 0.00 72 1014.7
20260903095403 82 0 0.0 0.0 0.00 0.00 0.00 72 1014.7
20260903094503 82 123 0.0 1.0 0.00 0.00 0.00 72 1014.7
20260903093603 82 123 0.0 1.0 0.00 0.00 0.00 71 1014.7
20260903092724 82 120 0.0 1.0 0.00 0.00 0.00 71 1014.7
20260903091824 82 123 0.0 1.0 0.00 0.00 0.00 70 1014.7
20260903090924 83 0 0.0 0.0 0.00 0.00 0.00 70 1014.7
20260903090024 83 142 0.0 1.0 0.00 0.00 0.00 70 1014.6
20260903085424 83 133 0.0 1.0 0.00 0.00 0.00 70 1014.6
20260903084503 83 140 0.0 1.0 0.00 0.00 0.00 69 1014.7
20260903083603 83 138 0.0 1.0 0.00 0.00 0.00 69 1014.6
20260903082703 83 145 0.0 1.0 0.00 0.00 0.00 69 1014.7
20260903081803 83 115 0.0 1.0 0.00 0.00 0.00 69 1014.6
20260903080903 83 124 0.0 2.0 0.00 0.00 0.00 70 1014.6
20260903080003 83 137 0.0 1.0 0.00 0.00 0.00 70 1014.6
20260903075403 83 134 0.0 1.0 0.00 0.00 0.00 70 1014.5
20260903074503 83 136 0.0 1.0 0.00 0.00 0.00 71 1014.5
20260903073603 83 0 0.0 1.0 0.00 0.00 0.00 71 1014.5
20260903072703 83 0 0.0 0.0 0.00 0.00 0.00 71 1014.6
20260903071824 83 0 0.0 0.0 0.00 0.00 0.00 70 1014.5
20260903070924 84 0 0.0 0.0 0.00 0.00 0.00 70 1014.5
20260903070024 84 0 0.0 0.0 0.00 0.00 0.00 69 1014.5
20260903065424 84 0 0.0 0.0 0.00 0.00 0.00 69 1014.5
20260903064524 84 0 0.0 1.0 0.00 0.00 0.00 68 1014.6
20260903063624 84 0 0.0 0.0 0.00 0.00 0.00 68 1014.5
20260903062724 85 0 0.0 1.0 0.00 0.00 0.00 67 1014.6
20260903061824 85 0 0.0 0.0 0.00 0.00 0.00 66 1014.6
20260903060924 86 211 0.0 1.0 0.00 0.00 0.00 65 1014.6
20260903060024 86 133 0.0 1.0 0.00 0.00 0.00 65 1014.6
20260903055403 86 132 0.0 2.0 0.00 0.00 0.00 65 1014.5
20260903054503 86 139 0.0 3.0 0.00 0.00 0.00 65 1014.5
20260903053603 86 138 0.0 3.0 0.00 0.00 0.00 65 1014.5
20260903052704 86 119 0.0 2.0 0.00 0.00 0.00 64 1014.6
20260903051804 86 129 0.0 3.0 0.00 0.00 0.00 64 1014.5
20260903050903 86 137 0.0 2.0 0.00 0.00 0.00 64 1014.5
20260903050005 86 133 0.0 1.0 0.00 0.00 0.00 65 1014.4
20260903045403 86 134 0.0 1.0 0.00 0.00 0.00 65 1014.4
20260903044503 87 146 0.0 2.0 0.00 0.00 0.00 65 1014.4
20260903043603 87 134 0.0 3.0 0.00 0.00 0.00 65 1014.4
20260903042703 87 139 0.0 3.0 0.00 0.00 0.00 64 1014.4
20260903041803 87 135 0.0 1.0 0.00 0.00 0.00 64 1014.4
20260903040903 87 132 0.0 2.0 0.00 0.00 0.00 64 1014.4
20260903040003 87 0 0.0 1.0 0.00 0.00 0.00 64 1014.4
20260903035403 88 124 0.0 1.0 0.00 0.00 0.00 63 1014.5
20260903034503 88 129 0.0 1.0 0.00 0.00 0.00 63 1014.5
20260903033603 88 0 0.0 1.0 0.00 0.00 0.00 62 1014.5
20260903032703 88 141 0.0 1.0 0.00 0.00 0.00 62 1014.5
20260903031803 89 141 0.0 1.0 0.00 0.00 0.00 61 1014.4
20260903030903 89 137 0.0 1.0 0.00 0.00 0.00 60 1014.4
20260903030003 89 135 0.0 3.0 0.00 0.00 0.00 60 1014.4
20260903025403 89 135 0.0 3.0 0.00 0.00 0.00 60 1014.4
20260903024503 90 132 1.0 4.0 0.00 0.00 0.00 59 1014.4
20260903023603 90 142 0.0 3.0 0.00 0.00 0.00 58 1014.3
20260903022703 90 141 0.0 2.0 0.00 0.00 0.00 57 1014.3
20260903021803 91 129 0.0 4.0 0.00 0.00 0.00 56 1014.2
20260903020903 91 128 0.0 3.0 0.00 0.00 0.00 55 1014.1
20260903020003 91 138 0.0 3.0 0.00 0.00 0.00 55 1014.1
20260903015403 91 138 0.0 3.0 0.00 0.00 0.00 54 1014.0
20260903014503 91 134 0.0 2.0 0.00 0.00 0.00 54 1013.9
20260903013603 91 135 0.0 2.0 0.00 0.00 0.00 53 1013.7
20260903012703 91 138 1.0 4.0 0.00 0.00 0.00 53 1013.6
20260903011803 90 145 0.0 2.0 0.00 0.00 0.00 54 1013.5
20260903010903 90 0 0.0 0.0 0.00 0.00 0.00 55 1013.5
20260903010003 91 0 0.0 0.0 0.00 0.00 0.00 55 1013.4
20260903005403 91 0 0.0 0.0 0.00 0.00 0.00 54 1013.4
20260903004503 92 0 0.0 0.0 0.00 0.00 0.00 53 1013.4
20260903003603 94 0 0.0 0.0 0.00 0.00 0.00 50 1013.4
20260903002703 94 0 0.0 0.0 0.00 0.00 0.00 50 1013.3
20260903001803 95 132 0.0 1.0 0.00 0.00 0.00 45 1013.4
20260903000903 96 132 0.0 1.0 0.00 0.00 0.00 43 1013.4
20260903000003 96 128 0.0 2.0 0.00 0.00 0.00 43 1013.3
20260902235403 97 131 0.0 2.0 0.00 0.00 0.00 42 1013.4
20260902234503 97 149 0.0 2.0 0.00 0.00 0.00 42 1013.3
20260902233603 97 140 0.0 2.0 0.00 0.00 0.00 42 1013.3
20260902232703 98 141 0.0 3.0 0.00 0.00 0.00 41 1013.3
20260902231803 98 126 0.0 1.0 0.00 0.00 0.00 43 1013.3